{"data":{"norad_id":67899,"epoch":"2026-09-19T13:32:55.423968Z","epoch_age_seconds":144143,"freshness":"FRESH","line1":"1 67899U 26035W   26262.56453037  .00022483  00000+0  69658-3 0  9991","line2":"2 67899  97.2843 194.4900 0001668  89.6821 270.4613 15.33448400 33704","mean_motion":15.334484,"eccentricity":0.0001668,"inclination_deg":97.2843,"raan_deg":194.49,"arg_perigee_deg":89.6821,"mean_anomaly_deg":270.4613,"bstar":0.00069658,"rev_number":3370,"period_min":93.905996445658,"perigee_km":464.39153432317,"apogee_km":466.67458265468,"semimajor_km":6843.6700584889,"source":"CELESTRAK","updated_at":"2026-09-20T09:00:43.699713Z"}}